User: anonymous   Login
Location: Unspecified
(0.0000°N, 0.0000°E)
Time: 08:54:39
(UTC+00:00)
Language:

Vanguard 3 - Orbit

View from above orbital plane
View from above orbital plane
View from above satellite
View from above satellite

Ground track
Ground track

The orbit data is extracted from the following two-line orbital elements,

1 00020U 59007A   15186.34978723  .00001544  00000-0  64013-3 0  9998
2 00020 033.3406 144.2858 1669822 034.0898 335.6454 11.54909969 21333
Epoch (UTC): 05 July 2015 08:23:41
Eccentricity: 0.1669822
inclination: 33.3406°
perigee height: 509 km
apogee height: 3270 km
right ascension of ascending node: 144.2858°
argument of perigee: 34.0898°
revolutions per day: 11.54909969
mean anomaly at epoch: 335.6454°
orbit number at epoch: 2133

The dashed part of the orbit path shows where the satellite is in the earth's shadow,  

DLR